Location: Zagreb
(45.8000°N, 16.0000°E)
Time: 22:36:10
(UTC+01:00)

Tiros 1 despin weight - Pass Details

Date: 31 January 2020
Orbit: 594 x 642 km, 48.2° (Epoch: 24 February)

Event Time Altitude Azimuth Distance (km) Brightness Sun altitude
Rises 10:36:36 0° 259° (W) 2,847 ? 23.3°
Reaches altitude 10° 10:38:53 10° 261° (W) 1,952 ? 23.5°
Maximum altitude 10:43:23 75° 348° (NNW) 637 ? 23.8°
Drops below altitude 10° 10:47:56 10° 74° (ENE) 1,986 ? 24.1°
Sets 10:50:17 0° 76° (ENE) 2,901 ? 24.2°
